Regional Weather Roundup
Issued by NWS

Home | Current Version | Previous Version | Text Only | Print | Product List | Glossary Off
Versions: 1 2 3 4 5 6 7 8 9 10 11 12 13 14 15 16 17 18 19 20 21 22 23 24 25 26 27 28 29 30 31 32 33 34 35 36 37 38 39 40 41 42 43 44 45 46 47 48 49 50

000
ASUS43 KIND 272159
RWRIN

WEATHER ROUNDUP FOR INDIANA
NATIONAL WEATHER SERVICE INDIANAPOLIS IN
600 PM EDT WED MAY 27 2015

NOTE: "FAIR" INDICATES FEW OR NO CLOUDS BELOW 12,000 FEET WITH NO
SIGNIFICANT WEATHER AND/OR OBSTRUCTIONS TO VISIBILITY.

* - STATION DOES NOT REPORT WEATHER SUCH AS PRECIPITATION OR FOG.

+ - STATION NOT QUALITY CONTROLLED BY THE NATIONAL WEATHER SERVICE.
    USE DATA WITH CAUTION...ESPECIALLY DEWPOINT AND RELATIVE
    HUMIDITY OBSERVATIONS.

INZ001>003-010>013-019-020-272300-
NORTHWEST INDIANA

CITY           SKY/WX    TMP DP  RH WIND       PRES   REMARKS
GARY /AIRPORT/ PTSUNNY   72  57  60 NW12G23   30.03R
RENSSELAER +   PTSUNNY   77  59  53 W13G22    30.03R

$$

LMZ046-743>745-272300-
SOUTHERN LAKE MICHIGAN

STATION/POSITION TIME  TEMP    WIND        PRES    WAVE
                       AIR SEA DIR/SP/G            HT
                 (UTC) (F)     (DEG/KT/KT) (MB)    (FT)
BURNS HARBOR     2100   63     320/ 12/ 14 1016.6S
MICHIGAN CITY    2100   61     320/ 17/ 19   N/A
5NW MICH CITY    2100   56 53  360/  8/ 10   N/A     1

$$

INZ004-005-014>016-021>024-272300-
NORTH CENTRAL INDIANA

CITY           SKY/WX    TMP DP  RH WIND       PRES   REMARKS
ELKHART        PTSUNNY   73  55  53 NW10G21   30.02R
GOSHEN         PTSUNNY   72  60  66 NW10      30.01R
SOUTH BEND     MOSUNNY   71  58  63 NW16      30.02R

$$

INZ006>009-017-018-025>027-272300-
NORTHEAST INDIANA

CITY           SKY/WX    TMP DP  RH WIND       PRES   REMARKS
ANGOLA *+      MOSUNNY   73  66  78 SW8       30.01R
FORT WAYNE     PTSUNNY   71  64  78 W10       30.03R

$$

INZ028-029-035-036-043>045-051>053-272300-
WEST CENTRAL INDIANA

CITY           SKY/WX    TMP DP  RH WIND       PRES   REMARKS
CRAWFORDSVL +  PTSUNNY   72  62  71 W6        30.04S
GREENCASTLE +  PTSUNNY   79  54  41 SW5       30.05S
LAFAYETTE      PTSUNNY   76  60  57 W12       30.03R
TERRE HAUTE    PTSUNNY   80  60  50 SW12      30.04S

$$

INZ030>032-037>040-046>048-054>057-064-065-272300-
CENTRAL INDIANA

CITY           SKY/WX    TMP DP  RH WIND       PRES   REMARKS
GREENWOOD *+   CLOUDY    79  55  44 SW13G18   30.06R
INDIANAPOLIS   CLOUDY    79  59  50 SW17      30.03R
-EAGLE CREEK   CLOUDY    80  59  48 SW10G22   30.03R
KOKOMO *+      CLOUDY    68  64  88 W8        30.04S
MT COMFORT *+  PTSUNNY   79  50  36 SW13G20   30.05R
SHELBYVILLE    CLOUDY    81  64  56 SW14      30.05R

$$

INZ033-034-041-042-049-050-058-059-272300-
EAST CENTRAL INDIANA

CITY           SKY/WX    TMP DP  RH WIND       PRES   REMARKS
MUNCIE         PTSUNNY   79  61  53 SW13      30.04R

$$

INZ060-061-067>069-081>083-085>088-272300-
SOUTHWEST INDIANA

CITY           SKY/WX    TMP DP  RH WIND       PRES   REMARKS
EVANSVILLE     CLOUDY    77  61  57 SW15      30.08S
HUNTINGBURG *+ CLOUDY    75  64  69 SW16      30.09S

$$

INZ062-063-066-070>080-084-089>092-272300-
SOUTH CENTRAL AND SOUTHEAST INDIANA

CITY           SKY/WX    TMP DP  RH WIND       PRES   REMARKS
BLOOMINGTON    CLOUDY    80  59  48 W9        30.07R
MADISON *+     CLOUDY    73  59  60 S13       30.12R
SEYMOUR +      CLOUDY    81  63  54 S12G18    30.06S

$$



USA.gov is the U.S. government's official web portal to all federal, state and local government web resources and services.